Weather History for Fremont, NE

Change the Weather History Date:

Wednesday, May 13, 2009

  Actual Average Record
Temperature  
Mean Temperature 65 °F -  
Max Temperature 71 °F 73 °F 89 °F (1988)
Min Temperature 59 °F 46 °F 26 °F (1997)
Growing Degree Days 15 (Base 50)    
Moisture  
Dew Point 55 °F    
Average Humidity 77    
Maximum Humidity 100    
Minimum Humidity 24    
Precipitation  
Precipitation 0.10 in - - ()
Sea Level Pressure  
Sea Level Pressure 29.63 in    
Wind  
Wind Speed 10 mph (NNW)    
Max Wind Speed 29 mph    
Max Gust Speed 36 mph    
Visibility 8 miles    
Events Rain , Thunderstorm    
Averages and records for this station are not official NWS values.
T = Trace of Precipitation, MM = Missing Value Source: NWS Daily Summary

Daily Weather History Graph

Daily Weather History Graph

Search for Another Location

Airport:

Trip Planner

Search our weather history database for the weather conditions in past years. The results will help you decide how hot, cold, wet, or windy it might be!

Date:

Astronomy

May. 13, 2009 Rise Set
Actual Time 6:08 AM CDT 8:36 PM CDT
Civil Twilight 5:37 AM CDT 9:08 PM CDT
Nautical Twilight 4:58 AM CDT 9:47 PM CDT
Astronomical Twilight 4:15 AM CDT 10:30 PM CDT
Moon 12:16 AM CDT (5/13) 9:19 AM CDT (5/13)
Length of Visible Light 15h 30m
Length of Day
14h 27m
Waning Gibbous, 82% of the Moon is Illuminated
May 13
Waning Gibbous
May 17
Last Quarter
May 24
New
May 30
First Quarter
Jun 7
Full

Hourly Weather History & Observations

Time (CDT) Temp. Dew Point Humidity Pressure Visibility Wind Dir Wind Speed Gust Speed Precip Events Conditions
12:10 AM 59.0 °F 59.0 °F 100% 29.61 in 3.0 mi South 10.4 mph 18.4 mph N/A   Overcast
12:30 AM 59.0 °F 59.0 °F 100% 29.62 in 5.0 mi South 11.5 mph - N/A   Overcast
12:50 AM 60.8 °F 59.0 °F 94% 29.60 in 4.0 mi South 8.1 mph - N/A   Overcast
1:10 AM 60.8 °F 59.0 °F 94% 29.60 in 4.0 mi South 6.9 mph - N/A   Overcast
1:30 AM 60.8 °F 59.0 °F 94% 29.59 in 4.0 mi South 6.9 mph - N/A   Overcast
1:50 AM 60.8 °F 59.0 °F 94% 29.58 in 4.0 mi South 6.9 mph - N/A   Overcast
2:10 AM 60.8 °F 60.8 °F 100% 29.57 in 4.0 mi South 10.4 mph - N/A   Overcast
2:30 AM 60.8 °F 60.8 °F 100% 29.50 in 4.0 mi SE 15.0 mph - N/A   Overcast
2:50 AM 60.8 °F 60.8 °F 100% 29.56 in 4.0 mi South 5.8 mph 16.1 mph N/A   Overcast
3:10 AM 60.8 °F 60.8 °F 100% 29.60 in 4.0 mi WSW 4.6 mph - N/A   Overcast
3:30 AM 60.8 °F 60.8 °F 100% 29.61 in 2.0 mi Calm Calm - N/A Rain Light Rain
3:50 AM 60.8 °F 60.8 °F 100% 29.62 in 1.8 mi NNW 5.8 mph - N/A Rain Light Rain
4:10 AM 60.8 °F 60.8 °F 100% 29.60 in 2.0 mi North 3.5 mph - N/A Rain , Thunderstorm Light Thunderstorms and Rain
4:30 AM 60.8 °F 60.8 °F 100% 29.62 in 2.5 mi North 6.9 mph - N/A Rain , Thunderstorm Light Thunderstorms and Rain
4:50 AM 60.8 °F 60.8 °F 100% 29.63 in 2.5 mi North 11.5 mph 18.4 mph 0.01 in Rain , Thunderstorm Light Thunderstorms and Rain
5:10 AM 60.8 °F 60.8 °F 100% 29.60 in 3.0 mi NE 10.4 mph 18.4 mph 0.05 in Rain , Thunderstorm Thunderstorms and Rain
5:30 AM 60.8 °F 60.8 °F 100% 29.54 in 7.0 mi East 18.4 mph 24.2 mph 0.06 in Rain , Thunderstorm Light Thunderstorms and Rain
5:50 AM 60.8 °F 60.8 °F 100% 29.51 in 7.0 mi SSE 16.1 mph 27.6 mph 0.08 in Rain , Thunderstorm Light Thunderstorms and Rain
6:10 AM 60.8 °F 60.8 °F 100% 29.52 in 10.0 mi SE 12.7 mph 21.9 mph 0.01 in   Mostly Cloudy
6:30 AM 60.8 °F 60.8 °F 100% 29.56 in 10.0 mi SE 3.5 mph - 0.01 in   Mostly Cloudy
6:50 AM 60.8 °F 60.8 °F 100% 29.56 in 10.0 mi East 4.6 mph - 0.01 in   Overcast
7:10 AM 60.8 °F 60.8 °F 100% 29.58 in 10.0 mi Calm Calm - N/A   Overcast
7:30 AM 60.8 °F 60.8 °F 100% 29.58 in 10.0 mi Calm Calm - N/A   Overcast
7:50 AM 60.8 °F 60.8 °F 100% 29.59 in 7.0 mi Calm Calm - N/A   Overcast
8:10 AM 60.8 °F 60.8 °F 100% 29.58 in 10.0 mi ENE 3.5 mph - N/A   Overcast
8:30 AM 62.6 °F 62.6 °F 100% 29.58 in 10.0 mi Calm Calm - N/A   Mostly Cloudy
8:50 AM 62.6 °F 62.6 °F 100% 29.59 in 10.0 mi Calm Calm - N/A   Overcast
9:10 AM 62.6 °F 62.6 °F 100% 29.59 in 10.0 mi Calm Calm - N/A   Overcast
9:30 AM 62.6 °F 60.8 °F 94% 29.60 in 10.0 mi North 3.5 mph - N/A   Overcast
9:50 AM 62.6 °F 60.8 °F 94% 29.59 in 3.0 mi Calm Calm - N/A   Overcast
10:10 AM 62.6 °F 62.6 °F 100% 29.60 in 1.5 mi NNW 9.2 mph - N/A   Overcast
10:30 AM 62.6 °F 62.6 °F 100% 29.60 in 4.0 mi NNW 9.2 mph - N/A   Overcast
10:50 AM 64.4 °F 62.6 °F 94% 29.60 in 10.0 mi NNW 8.1 mph - N/A   Overcast
11:10 AM 64.4 °F 60.8 °F 88% 29.61 in 10.0 mi NNW 11.5 mph - N/A   Overcast
11:30 AM 64.4 °F 60.8 °F 88% 29.61 in 10.0 mi NNW 10.4 mph - N/A   Overcast
11:50 AM 68.0 °F 60.8 °F 78% 29.61 in 10.0 mi NNW 10.4 mph - N/A   Overcast
12:10 PM 68.0 °F 60.8 °F 78% 29.62 in 10.0 mi North 12.7 mph 19.6 mph N/A   Overcast
12:30 PM 68.0 °F 59.0 °F 73% 29.62 in 10.0 mi NNW 11.5 mph - N/A   Overcast
12:50 PM 68.0 °F 55.4 °F 64% 29.62 in 10.0 mi North 13.8 mph 23.0 mph N/A   Overcast
1:10 PM 68.0 °F 55.4 °F 64% 29.65 in 10.0 mi NNW 16.1 mph 21.9 mph N/A   Overcast
1:30 PM 69.8 °F 53.6 °F 56% 29.65 in 10.0 mi NNW 18.4 mph 26.5 mph N/A   Mostly Cloudy
1:50 PM 69.8 °F 51.8 °F 53% 29.67 in 10.0 mi NNW 13.8 mph 24.2 mph N/A   Clear
2:10 PM 69.8 °F 51.8 °F 53% 29.67 in 10.0 mi NNW 15.0 mph 28.8 mph N/A   Clear
2:30 PM 69.8 °F 50.0 °F 49% 29.67 in 10.0 mi NNW 17.3 mph 24.2 mph N/A   Clear
2:50 PM 69.8 °F 50.0 °F 49% 29.67 in 10.0 mi NNW 13.8 mph 25.3 mph N/A   Clear
3:10 PM 71.6 °F 51.8 °F 50% 29.67 in 10.0 mi NW 18.4 mph 26.5 mph N/A   Clear
3:30 PM 71.6 °F 48.2 °F 43% 29.69 in 10.0 mi North 15.0 mph 28.8 mph N/A   Clear
3:50 PM 71.6 °F 46.4 °F 41% 29.70 in 10.0 mi NW 18.4 mph 23.0 mph N/A   Clear
4:10 PM 71.6 °F 44.6 °F 38% 29.71 in 10.0 mi NNW 18.4 mph 28.8 mph N/A   Clear
4:30 PM 71.6 °F 42.8 °F 35% 29.72 in 10.0 mi NNW 23.0 mph 29.9 mph N/A   Clear
4:50 PM 71.6 °F 42.8 °F 35% 29.74 in 10.0 mi NNW 21.9 mph 32.2 mph N/A   Clear
5:10 PM 71.6 °F 42.8 °F 35% 29.75 in 10.0 mi NW 25.3 mph 33.4 mph N/A   Scattered Clouds
5:30 PM 69.8 °F 37.4 °F 31% 29.76 in 10.0 mi NNW 24.2 mph 35.7 mph N/A   Scattered Clouds
5:50 PM 69.8 °F 33.8 °F 27% 29.77 in 10.0 mi WNW 28.8 mph 33.4 mph N/A   Clear
6:10 PM 68.0 °F 35.6 °F 30% 29.78 in 10.0 mi NW 21.9 mph 28.8 mph N/A   Clear
6:30 PM 66.2 °F 35.6 °F 32% 29.77 in 10.0 mi NW 13.8 mph - N/A   Clear
6:50 PM 66.2 °F 33.8 °F 30% 29.78 in 10.0 mi NW 13.8 mph - N/A   Clear
7:10 PM 68.0 °F 30.2 °F 24% 29.79 in 10.0 mi WNW 26.5 mph 35.7 mph N/A   Clear
7:30 PM 64.4 °F 32.0 °F 30% 29.81 in 10.0 mi NW 23.0 mph 29.9 mph N/A   Clear
7:50 PM 64.4 °F 28.4 °F 26% 29.81 in 10.0 mi NW 24.2 mph 31.1 mph N/A   Clear
8:10 PM 64.4 °F 26.6 °F 24% 29.82 in 10.0 mi WNW 25.3 mph 31.1 mph N/A   Clear
8:30 PM 62.6 °F 28.4 °F 27% 29.84 in 10.0 mi NW 17.3 mph - N/A   Clear
8:50 PM 60.8 °F 26.6 °F 27% 29.84 in 10.0 mi NW 17.3 mph 21.9 mph N/A   Clear
9:10 PM 59.0 °F 26.6 °F 29% 29.86 in 10.0 mi NW 17.3 mph 25.3 mph N/A   Clear
9:30 PM 59.0 °F 30.2 °F 34% 29.88 in 10.0 mi NW 19.6 mph - N/A   Clear
9:50 PM 55.4 °F 32.0 °F 41% 29.90 in 10.0 mi NW 11.5 mph - N/A   Clear
10:10 PM 53.6 °F 30.2 °F 41% 29.92 in 10.0 mi NW 16.1 mph 20.7 mph N/A   Clear
10:30 PM 53.6 °F 32.0 °F 44% 29.94 in 10.0 mi NW 16.1 mph 23.0 mph N/A   Clear
10:50 PM 51.8 °F 32.0 °F 47% 29.94 in 10.0 mi NNW 13.8 mph - N/A   Clear
11:10 PM 51.8 °F 32.0 °F 47% 29.96 in 10.0 mi NW 21.9 mph 27.6 mph N/A   Clear
11:30 PM 50.0 °F 32.0 °F 50% 29.96 in 10.0 mi NW 18.4 mph 26.5 mph N/A   Clear
11:50 PM 50.0 °F 32.0 °F 50% 29.98 in 10.0 mi WNW 15.0 mph 20.7 mph N/A   Clear